Vorticity
nan nan nan nan nan nan nan nan nan nan nan nan nan nan nan nan nan nan nan nan nan nan nan nan nan nan nan nan nan nan nan nan nan nan nan nan nan nan nan nan nan nan nan
nan 6 5 5 4 4 4 4 5 5 5 5 4 5 5 4 4 3 3 4 9 9 4 4 5 5 5 6 7 7 4 4 4 3 4 4 4 4 4 4 4 5 nan
nan 6 5 5 4 5 4 4 4 4 4 4 4 4 4 3 4 4 4 5 7 10 7 3 4 5 6 6 6 6 5 4 4 3 2 3 3 4 4 4 4 5 nan
nan 6 6 5 5 5 4 4 4 4 4 4 4 3 4 4 4 4 5 5 5 10 10 3 2 3 5 5 4 4 4 4 5 4 2 3 3 5 5 5 5 5 nan
nan 6 7 6 6 5 5 4 4 4 5 6 5 5 5 5 5 7 6 5 4 6 8 7 4 2 3 4 4 4 4 5 6 4 4 4 4 5 6 5 4 4 nan
nan 7 7 6 7 7 7 7 6 6 7 8 8 7 7 8 8 8 9 9 7 5 4 6 7 5 3 4 4 5 5 7 5 5 5 5 4 4 7 8 5 4 nan
nan 8 7 7 7 7 7 7 7 7 7 7 8 8 9 9 9 8 8 9 9 9 9 8 6 7 7 6 4 5 6 6 6 6 6 6 5 4 5 6 7 6 nan
nan 6 5 5 6 7 7 6 7 8 8 8 7 7 8 9 9 9 9 7 8 9 11 12 13 12 9 8 9 8 7 6 6 6 6 7 6 4 5 5 6 8 nan
nan 5 5 4 4 4 4 6 7 8 8 7 7 7 7 7 7 8 7 6 7 6 7 8 10 12 15 13 11 10 8 6 4 7 7 8 6 4 4 5 5 6 nan
nan 6 6 6 5 4 2 3 5 5 6 5 5 5 6 5 4 5 5 5 6 6 6 6 7 7 9 11 13 14 12 9 7 7 8 7 4 4 6 6 6 6 nan
nan 6 6 6 6 6 5 3 3 3 4 4 4 6 8 6 5 5 5 5 7 7 7 7 7 6 8 9 9 12 14 12 10 9 9 7 6 5 7 8 10 9 nan
nan 5 6 6 6 7 6 5 5 5 5 5 6 7 7 6 7 7 5 5 7 8 7 6 7 9 9 9 7 8 9 8 9 8 7 6 8 8 9 10 10 12 nan
nan 6 6 6 6 7 7 7 6 6 6 5 6 8 8 8 8 8 8 7 6 7 7 6 8 7 6 7 6 6 6 8 8 8 7 6 7 8 8 8 8 9 nan
nan 6 5 5 6 6 7 7 7 7 7 7 6 8 9 8 7 8 7 7 8 6 6 8 7 6 8 8 8 7 8 8 7 8 9 9 7 7 7 7 7 7 nan
nan 6 6 5 6 6 7 7 7 7 7 7 7 7 8 7 7 7 7 7 7 7 7 7 7 8 8 9 9 9 8 8 8 8 9 9 8 8 9 8 7 7 nan
nan 7 6 6 6 6 6 7 7 7 7 7 7 6 7 8 7 7 7 8 8 7 7 8 8 8 9 9 8 9 9 8 9 8 8 8 9 9 9 8 8 8 nan
nan 8 8 6 6 6 6 6 7 7 7 7 7 7 8 8 7 7 8 9 8 7 9 9 9 9 8 8 9 9 10 9 8 8 8 9 10 9 8 9 10 10 nan
nan 8 7 8 7 5 5 7 8 7 7 7 7 7 7 8 8 8 9 8 7 8 9 9 9 9 8 8 9 9 9 9 9 11 10 9 9 9 8 8 9 10 nan
nan 9 8 8 7 6 6 7 7 7 8 7 7 7 7 8 9 9 8 7 8 9 8 8 9 10 8 8 7 9 10 11 11 10 9 10 10 9 7 7 8 9 nan
nan 8 8 8 7 6 6 7 8 7 8 7 7 6 7 8 7 9 8 7 8 8 6 6 8 10 10 8 9 10 11 13 12 8 9 9 8 8 8 9 9 6 nan
nan 10 9 6 6 5 7 8 8 8 8 7 5 6 7 7 7 8 9 7 8 7 6 9 8 7 10 10 12 11 11 10 8 8 8 5 6 7 9 10 9 9 nan
nan 10 8 6 7 6 7 8 8 8 8 7 8 8 6 5 7 7 7 7 8 8 7 8 9 9 8 8 12 10 8 7 4 9 6 4 6 9 8 8 9 9 nan
nan 10 8 8 7 7 7 6 7 8 7 9 8 8 6 6 7 7 7 7 8 8 8 8 7 8 10 8 8 10 9 5 9 8 4 4 7 10 8 7 8 8 nan
nan 10 9 8 7 8 8 6 7 6 7 7 6 5 6 8 8 8 8 7 8 8 8 8 9 8 8 8 8 10 8 7 7 7 5 5 6 8 9 8 7 7 nan
nan 9 7 7 8 9 8 6 6 6 6 6 6 7 9 9 9 8 8 8 8 7 7 7 9 8 9 8 8 7 9 9 7 5 4 9 7 7 9 8 8 7 nan
nan nan nan nan nan nan nan nan nan nan nan nan nan nan nan nan nan nan nan nan nan nan nan nan nan nan nan nan nan nan nan nan nan nan nan nan nan nan nan nan nan nan nan
CAPE
771 1471 1791 1264 1027 826 642 441 251 216 93 54 133 60 299 500 705 762 898 741 311 96 123 678 901 849 498 336 478 327 44 0 0 0 0 2 10 47 39 9 4 4 140
916 1330 1807 1556 1144 919 582 381 280 200 135 126 302 268 219 302 351 490 627 769 787 335 122 221 380 321 332 336 224 569 181 0 0 0 0 0 0 0 0 0 0 0 0
1092 1274 1299 1775 1602 1139 686 516 412 292 206 158 154 204 241 410 631 567 424 302 395 847 284 198 129 290 516 494 425 555 195 0 0 0 0 0 0 0 0 0 0 0 0
1111 1370 1320 1720 1600 1383 1000 828 773 595 408 310 286 255 270 276 255 241 270 282 179 776 527 242 207 100 139 446 289 238 266 33 0 0 0 0 0 0 0 0 0 0 0
1176 1414 1460 1668 1582 1405 1237 1111 1069 1029 972 860 820 785 732 741 769 727 721 589 338 183 789 462 275 193 125 104 288 288 210 148 17 0 0 0 0 0 0 34 1 0 0
1126 1208 1458 1492 1409 1209 1111 1013 993 910 880 880 871 839 861 869 873 773 762 697 715 559 303 393 912 633 448 273 134 85 178 329 196 35 0 0 0 0 5 14 109 17 0
1123 1132 1153 1445 1240 966 817 762 717 666 657 612 527 491 510 584 590 601 620 670 678 690 748 714 582 706 891 690 625 377 191 229 95 151 118 12 0 0 0 73 108 264 57
564 268 347 153 217 193 104 0 0 0 2 0 0 0 0 0 0 71 214 130 8 1 114 559 688 618 817 632 566 671 515 162 28 1 26 109 2 0 5 4 74 216 414
0 0 0 0 0 0 0 0 0 0 0 0 0 0 0 0 0 0 0 0 0 0 0 0 6 207 597 593 675 530 383 272 227 103 7 0 0 17 56 70 52 102 319
0 0 0 0 0 0 0 0 0 0 0 0 0 0 0 0 0 0 0 0 0 0 0 0 0 0 0 0 123 390 152 71 207 294 200 120 1 158 339 246 125 140 260
0 0 0 0 0 0 0 0 0 0 0 0 0 0 0 0 0 0 0 0 0 0 0 0 0 0 0 0 0 0 0 485 481 426 325 87 154 609 692 622 634 559 382
0 0 0 0 0 0 0 0 0 0 0 0 0 0 0 0 0 0 0 0 0 0 0 0 0 0 0 0 0 0 0 39 120 121 149 27 265 552 636 469 480 614 632
0 0 0 0 0 0 0 0 0 0 0 0 0 0 0 0 0 0 0 0 0 0 0 0 0 0 0 0 0 0 0 0 0 1 0 0 44 318 400 286 305 519 500
0 0 0 0 0 0 0 0 0 0 0 0 0 0 0 0 0 0 0 0 0 0 0 0 0 0 0 0 0 0 0 0 0 0 0 0 20 79 13 30 43 23 0
0 0 0 0 0 0 0 0 0 0 0 0 0 0 0 0 0 0 0 0 0 0 0 0 0 0 0 0 0 0 0 0 0 0 4 0 0 1 39 7 0 0 0
0 0 0 0 0 0 0 0 0 0 0 0 0 0 0 0 0 0 0 0 0 0 0 0 0 0 0 0 0 0 0 0 0 0 0 0 0 0 2 0 0 0 0
0 0 0 0 0 0 0 0 0 0 0 0 0 0 0 0 0 0 0 0 1 0 0 0 0 0 0 0 0 0 0 0 0 0 0 0 0 0 0 0 0 0 0
0 0 0 0 0 0 0 0 0 0 0 0 0 0 0 0 0 0 0 1 1 0 0 0 0 0 0 0 0 0 0 0 0 0 0 0 0 0 0 0 0 0 0
0 0 0 0 0 0 0 0 0 0 0 0 0 0 0 0 0 0 0 1 0 1 0 2 2 0 0 0 0 0 0 0 0 0 0 0 0 0 0 0 0 0 0
0 0 0 0 0 0 0 0 0 0 0 0 0 0 0 0 0 0 0 0 0 0 2 3 4 1 0 0 0 0 0 0 0 0 0 0 0 0 0 0 1 2 2
0 0 0 0 0 0 0 0 0 0 0 0 0 0 0 0 0 0 0 0 0 0 1 1 2 3 3 5 1 0 0 0 0 0 0 0 0 0 0 1 5 8 2
0 0 0 0 0 0 0 0 0 0 0 0 0 0 0 0 0 0 0 0 0 2 2 1 0 11 0 3 4 4 0 0 0 0 0 0 0 0 0 1 4 5 8
0 0 0 0 0 0 0 0 0 0 0 0 0 0 0 0 0 0 0 0 0 0 2 2 1 5 13 11 9 12 6 1 0 0 0 0 0 0 5 7 9 4 1
0 0 0 0 0 0 0 0 0 0 0 0 0 0 0 0 0 0 0 0 0 0 0 4 2 3 10 13 12 12 12 10 12 3 0 0 0 0 3 8 1 2 0
0 0 0 0 0 0 0 0 0 0 0 0 0 0 0 0 0 0 0 0 0 0 0 4 3 4 12 11 17 15 13 12 9 19 3 0 4 1 11 5 0 0 0
0 0 0 0 0 0 0 0 0 0 0 0 0 0 0 0 0 0 0 0 0 0 0 0 1 5 8 8 14 17 11 8 6 18 17 12 13 10 11 0 0 0 0